sat.trackr.live / text

‹ back to catalog

STARLINK-3311

NORAD 50849 · 2022-001AY

PAYLOAD ACTIVE UNKNOWN

§ Identity

Operator
Country
US
Launch date
2022-01-06
Launch site
AFETR
Launch vehicle
Mass (kg)
RCS (m²)

Purposes: comms

External: N2YO · Heavens-Above · Gunter

§ Orbital elements

Epoch: 2026-09-19T21:51:51.268320Z

Period
93.85 min
Inclination
53.1615°
Eccentricity
0.0001129
Mean motion
15.34386013 rev/d
Perigee alt
462.0 km
Apogee alt
463.5 km
Semi-major
6,840.9 km
B*
1.8450e-5
RAAN
12.1165°
Arg perigee
75.2463°
Mean anomaly
284.8664°
Rev number
25,979

§ Raw data

STARLINK-33111 50849U 22001AY  26262.91101005  .00000247  00000+0  18450-4 0  99902 50849  53.1615  12.1165 0001129  75.2463 284.8664 15.34386013259799

JSON: /api/v1/satellites/50849 · /tle

For live sub-satellite position, see the globe view (requires WebGL).

§ Visibility from observer

Set your observer location to see the next 7 days of passes ≥ 10°. The values pass through the URL so the page stays shareable.

No JS? Fill the form by hand. The geolocation button needs JavaScript.